Location: Home
(42.5358°N, 72.7383°W)
Time: 00:20:21
(UTC-05:00)

Vanguard 3 - Pass Details

Date: 05 December 2021
Orbit: 508 x 3260 km, 33.3° (Epoch: 21 January)

Event Time Altitude Azimuth Distance (km) Brightness Sun altitude
Rises 23:53:30 0° 186° (S) 6,256 - -69.7°
Reaches altitude 10° 23:59:20 10° 171° (S) 5,648 - -69.5°
Maximum altitude 00:10:16 19° 133° (SE) 5,324 - -69.0°
Exits shadow 00:17:21 16° 109° (ESE) 5,709 11.3 -68.5°
Drops below altitude 10° 00:21:59 10° 96° (E) 6,163 11.6 -68.2°
Sets 00:28:40 0° 82° (E) 7,009 12.1 -67.6°
